Weather History for Windom, MN

Change the Weather History Date:

Saturday, March 24, 2012

  Actual Average Record
Temperature  
Mean Temperature 54 °F -  
Max Temperature 71 °F 44 °F 78 °F (1963)
Min Temperature 37 °F 24 °F 2 °F (1951)
Degree Days  
Heating Degree Days 11    
Growing Degree Days 4 (Base 50)    
Moisture  
Dew Point 46 °F    
Average Humidity 74    
Maximum Humidity 100    
Minimum Humidity 38    
Precipitation  
Precipitation 0.00 in - - ()
Sea Level Pressure  
Sea Level Pressure 29.95 in    
Wind  
Wind Speed 3 mph (NW)    
Max Wind Speed 17 mph    
Max Gust Speed 24 mph    
Visibility 8 miles    
Events      
Averages and records for this station are not official NWS values.
T = Trace of Precipitation, MM = Missing Value Source: NWS Daily Summary

Daily Weather History Graph

Daily Weather History Graph

Search for Another Location

Airport:

Trip Planner

Search our weather history database for the weather conditions in past years. The results will help you decide how hot, cold, wet, or windy it might be!

Date:

Astronomy

Mar. 24, 2012 Rise Set
Actual Time 7:15 AM CDT 7:38 PM CDT
Civil Twilight 6:46 AM CDT 8:07 PM CDT
Nautical Twilight 6:12 AM CDT 8:41 PM CDT
Astronomical Twilight 5:37 AM CDT 9:16 PM CDT
Moon 7:49 AM CDT (3/24) 10:05 PM CDT (3/24)
Length of Visible Light 13h 20m
Length of Day
12h 22m
Waxing Crescent, 4% of the Moon is Illuminated
Mar 24
Waxing Crescent
Mar 30
First Quarter
Apr 6
Full
Apr 13
Last Quarter
Apr 21
New

Hourly Weather History & Observations

Time (CDT) Temp. Windchill Dew Point Humidity Pressure Visibility Wind Dir Wind Speed Gust Speed Precip Events Conditions
12:13 AM 44.6 °F 42.2 °F 42.8 °F 93% 29.92 in 10.0 mi West 4.6 mph - N/A   Clear
12:32 AM 44.6 °F - 44.6 °F 100% 29.92 in 7.0 mi Calm Calm - N/A   Clear
12:53 AM 44.6 °F - 44.6 °F 100% 29.92 in 10.0 mi Calm Calm - N/A   Clear
1:13 AM 44.6 °F - 42.8 °F 93% 29.92 in 7.0 mi Calm Calm - N/A   Clear
1:32 AM 44.6 °F 42.2 °F 42.8 °F 93% 29.92 in 7.0 mi WNW 4.6 mph - N/A   Clear
1:53 AM 44.6 °F - 42.8 °F 93% 29.92 in 7.0 mi Calm Calm - N/A   Clear
2:13 AM 44.6 °F 43.1 °F 42.8 °F 93% 29.92 in 7.0 mi West 3.5 mph - N/A   Clear
2:32 AM 44.6 °F - 42.8 °F 93% 29.92 in 10.0 mi Calm Calm - N/A   Clear
2:53 AM 42.8 °F - 42.8 °F 100% 29.92 in 7.0 mi Calm Calm - N/A   Clear
3:12 AM 42.8 °F - 42.8 °F 100% 29.92 in 7.0 mi Calm Calm - N/A   Clear
3:32 AM 42.8 °F - 42.8 °F 100% 29.91 in 7.0 mi Calm Calm - N/A   Clear
4:13 AM 41.0 °F 39.0 °F 41.0 °F 100% 29.91 in 5.0 mi West 3.5 mph - N/A   Clear
4:32 AM 42.8 °F 39.3 °F 41.0 °F 93% 29.90 in 4.0 mi West 5.8 mph - N/A   Clear
4:53 AM 42.8 °F 39.3 °F 42.8 °F 100% 29.90 in 5.0 mi West 5.8 mph - N/A   Clear
5:12 AM 41.0 °F - 41.0 °F 100% 29.91 in 1.5 mi Calm Calm - N/A   Mist
5:33 AM 42.8 °F 40.1 °F 41.0 °F 93% 29.91 in 5.0 mi West 4.6 mph - N/A   Clear
5:53 AM 41.0 °F 39.0 °F 41.0 °F 100% 29.92 in 4.0 mi West 3.5 mph - N/A   Clear
6:12 AM 41.0 °F - 39.2 °F 93% 29.92 in 5.0 mi Calm Calm - N/A   Clear
6:33 AM 42.8 °F - 42.8 °F 100% 29.92 in 5.0 mi Calm Calm - N/A   Clear
6:52 AM 41.0 °F - 41.0 °F 100% 29.93 in 3.0 mi Calm Calm - N/A   Clear
7:12 AM 39.2 °F - 39.2 °F 100% 29.94 in 4.0 mi Calm Calm - N/A   Clear
7:33 AM 39.2 °F - 39.2 °F 100% 29.94 in 2.5 mi Calm Calm - N/A   Clear
7:52 AM 37.4 °F - 37.4 °F 100% 29.95 in 1.8 mi Calm Calm - N/A   Mist
8:13 AM 42.8 °F 41.1 °F 42.8 °F 100% 29.96 in 3.0 mi West 3.5 mph - N/A   Clear
8:32 AM 46.4 °F 43.5 °F 44.6 °F 93% 29.96 in 4.0 mi West 5.8 mph - N/A   Clear
8:52 AM 48.2 °F - 46.4 °F 93% 29.97 in 7.0 mi West 3.5 mph - N/A   Clear
9:13 AM 51.8 °F - 48.2 °F 88% 29.97 in 10.0 mi Calm Calm - N/A   Clear
9:32 AM 55.4 °F - 50.0 °F 82% 29.97 in 10.0 mi Calm Calm - N/A   Clear
9:53 AM 57.2 °F - 51.8 °F 82% 29.97 in 10.0 mi Calm Calm - N/A   Clear
10:12 AM 59.0 °F - 51.8 °F 77% 29.97 in 10.0 mi WSW 4.6 mph - N/A   Clear
10:32 AM 60.8 °F - 51.8 °F 72% 29.97 in 10.0 mi WSW 3.5 mph - N/A   Clear
10:53 AM 62.6 °F - 51.8 °F 68% 29.97 in 10.0 mi West 3.5 mph - N/A   Clear
11:13 AM 62.6 °F - 51.8 °F 68% 29.96 in 10.0 mi Calm Calm - N/A   Scattered Clouds
11:32 AM 64.4 °F - 48.2 °F 56% 29.96 in 10.0 mi Calm Calm - N/A   Scattered Clouds
11:53 AM 64.4 °F - 48.2 °F 56% 29.95 in 10.0 mi West 3.5 mph - N/A   Clear
12:13 PM 66.2 °F - 48.2 °F 52% 29.95 in 10.0 mi Calm Calm - N/A   Clear
12:32 PM 66.2 °F - 48.2 °F 52% 29.95 in 10.0 mi West 3.5 mph - N/A   Unknown
12:53 PM 68.0 °F - 48.2 °F 49% 29.95 in 10.0 mi Calm Calm - N/A   Unknown
1:12 PM 68.0 °F - 48.2 °F 49% 29.95 in 10.0 mi NNW 3.5 mph - N/A   Unknown
1:32 PM 69.8 °F - 46.4 °F 43% 29.95 in 10.0 mi NW 6.9 mph - N/A   Unknown
1:53 PM 69.8 °F - 46.4 °F 43% 29.95 in 10.0 mi North 5.8 mph - N/A   Unknown
2:12 PM 69.8 °F - 46.4 °F 43% 29.94 in 10.0 mi Calm Calm - N/A   Scattered Clouds
2:32 PM 69.8 °F - 44.6 °F 40% 29.94 in 10.0 mi North 3.5 mph - N/A   Clear
2:53 PM 69.8 °F - 44.6 °F 40% 29.95 in 10.0 mi NNW 3.5 mph - N/A   Clear
3:12 PM 71.6 °F - 46.4 °F 41% 29.95 in 10.0 mi WNW 5.8 mph - N/A   Clear
3:33 PM 71.6 °F - 46.4 °F 41% 29.95 in 10.0 mi Calm Calm - N/A   Clear
3:53 PM 71.6 °F - 46.4 °F 41% 29.96 in 10.0 mi Calm Calm - N/A   Clear
4:12 PM 71.6 °F - 44.6 °F 38% 29.96 in 10.0 mi North 6.9 mph - N/A   Clear
4:33 PM 71.6 °F - 46.4 °F 41% 29.96 in 10.0 mi North 6.9 mph - N/A   Clear
5:12 PM 71.6 °F - 46.4 °F 41% 29.97 in 10.0 mi North 8.1 mph - N/A   Clear
5:32 PM 71.6 °F - 46.4 °F 41% 29.97 in 10.0 mi North 9.2 mph - N/A   Clear
5:53 PM 71.6 °F - 48.2 °F 43% 29.97 in 10.0 mi NE 8.1 mph - N/A   Clear
6:12 PM 71.6 °F - 46.4 °F 41% 29.97 in 10.0 mi North 8.1 mph - N/A   Clear
6:32 PM 69.8 °F - 46.4 °F 43% 29.98 in 10.0 mi North 11.5 mph - N/A   Clear
6:53 PM 68.0 °F - 48.2 °F 49% 29.98 in 10.0 mi NNE 6.9 mph - N/A   Clear
7:12 PM 66.2 °F - 50.0 °F 56% 29.98 in 10.0 mi NNE 5.8 mph - N/A   Clear
7:32 PM 62.6 °F - 55.4 °F 77% 29.99 in 10.0 mi NE 6.9 mph - N/A   Clear
7:53 PM 59.0 °F - 53.6 °F 82% 30.00 in 10.0 mi ENE 5.8 mph - N/A   Clear
8:12 PM 59.0 °F - 53.6 °F 82% 30.00 in 10.0 mi NE 3.5 mph - N/A   Clear
8:32 PM 57.2 °F - 53.6 °F 88% 30.01 in 10.0 mi ENE 3.5 mph - N/A   Clear
8:53 PM 55.4 °F - 53.6 °F 94% 30.03 in 10.0 mi NNW 17.3 mph - N/A   Scattered Clouds
9:12 PM 57.2 °F - 51.8 °F 82% 30.04 in 10.0 mi NNW 16.1 mph 24.2 mph N/A   Mostly Cloudy
9:33 PM 53.6 °F - 48.2 °F 82% 30.05 in 10.0 mi NNW 15.0 mph 19.6 mph N/A   Scattered Clouds
9:53 PM 51.8 °F - 48.2 °F 88% 30.06 in 10.0 mi NW 15.0 mph - N/A   Clear
10:12 PM 50.0 °F - 46.4 °F 87% 30.07 in 10.0 mi NNW 18.4 mph - N/A   Clear
10:53 PM 46.4 °F 40.1 °F 44.6 °F 93% 30.09 in 10.0 mi NW 15.0 mph - N/A   Clear
11:12 PM 44.6 °F 37.8 °F 42.8 °F 93% 30.09 in 10.0 mi NNW 15.0 mph 20.7 mph N/A   Clear
11:33 PM 44.6 °F 37.8 °F 42.8 °F 93% 30.09 in 10.0 mi NNW 15.0 mph 18.4 mph N/A   Scattered Clouds
11:53 PM 42.8 °F 35.4 °F 41.0 °F 93% 30.10 in 10.0 mi NNW 15.0 mph - N/A   Clear